Regional Weather Roundup
Issued by NWS Charleston, WV

Home | Current Version | Previous Version | Text Only | Print | Product List | Glossary Off
Versions: 1 2 3 4 5 6 7 8 9 10 11 12 13 14 15 16 17 18 19 20 21 22 23 24 25 26 27 28 29 30 31 32 33 34 35 36 37 38 39 40 41 42 43 44 45 46 47 48 49

000
ASUS41 KRLX 041010
RWRRLX
West Virginia Regional Weather Roundup
National Weather Service Charleston WV
600 AM EDT TUE AUG 04 2015

Note: "fair" indicates few or no clouds below 12,000 feet with no
significant weather and/or obstructions to visibility.

WVZ003-041100-
Northern Panhandle of West Virginia

CITY           SKY/WX    TMP DP  RH WIND       PRES   REMARKS
WHEELING       CLEAR     63  58  83 SW5       29.96R
$$

WVZ009-041100-
Northwest West Virginia

CITY           SKY/WX    TMP DP  RH WIND       PRES   REMARKS
PARKERSBURG    MOCLDY    69  65  86 CALM      29.99R
$$

WVZ006-041100-
Western West Virginia

CITY           SKY/WX    TMP DP  RH WIND       PRES   REMARKS
HUNTINGTON     MOCLDY    64  63  96 CALM      29.97R
$$

WVZ015-041100-
West Central West Virginia

CITY           SKY/WX    TMP DP  RH WIND       PRES   REMARKS
CHARLESTON     CLEAR     64  60  87 CALM      29.98R
$$

WVZ022-031-041100-
North Central West Virginia

CITY           SKY/WX    TMP DP  RH WIND       PRES   REMARKS
CLARKSBURG     MOCLDY    71  66  84 CALM      29.96R
MORGANTOWN     CLOUDY    69  65  86 S3        29.98R
$$

WVZ025-035-042-045-041100-
Southern West Virginia

CITY           SKY/WX    TMP DP  RH WIND       PRES   REMARKS
BECKLEY        PTCLDY    62  57  83 S5        30.05R
LOGAN            N/A     64  63  94 CALM      29.97R
BLUEFIELD      PTCLDY    68  59  73 SW10      30.06F
LEWISBURG      CLEAR     62  56  81 CALM      30.04R
$$

WVZ047-041100-
Northern Mountains of West Virginia

CITY           SKY/WX    TMP DP  RH WIND       PRES   REMARKS
ELKINS         CLOUDY    70  62  76 SW3       30.01R
$$

WVZ052-041100-
Eastern Panhandle of West Virginia

CITY           SKY/WX    TMP DP  RH WIND       PRES   REMARKS
MARTINSBURG    PTCLDY    66  64  93 S5        29.91R
PETERSBURG     PTCLDY    65  64  94 CALM      29.95R FOG
$$


USA.gov is the U.S. government's official web portal to all federal, state and local government web resources and services.